Datum;Richtung;Anzahl Messungen;Anzahl Fahrzeuge;Durchschnittsgeschwindigkeit;Höchstgeschwindigkeit
18/10/2021 10:00;1;27;27;23.37;36.00
18/10/2021 10:30;1;25;25;28.84;48.00
18/10/2021 11:00;1;27;27;27.81;47.00
18/10/2021 11:30;1;30;30;29.43;46.00
18/10/2021 12:00;1;8;8;30.00;46.00
18/10/2021 12:30;1;50;50;31.34;57.00
18/10/2021 13:00;1;49;49;31.31;47.00
18/10/2021 13:30;1;40;40;32.62;64.00
18/10/2021 14:00;1;52;52;31.06;50.00
18/10/2021 14:30;1;51;51;29.96;47.00
18/10/2021 15:00;1;60;60;30.68;53.00
18/10/2021 15:30;1;56;56;32.18;48.00
18/10/2021 16:00;1;70;70;27.84;46.00
18/10/2021 16:30;1;48;48;31.46;46.00
18/10/2021 17:00;1;60;60;33.05;51.00
18/10/2021 17:30;1;41;41;32.44;46.00
18/10/2021 18:00;1;41;41;31.02;49.00
18/10/2021 18:30;1;33;33;30.85;43.00
18/10/2021 19:00;1;21;21;35.19;61.00
18/10/2021 19:30;1;25;25;33.84;44.00
18/10/2021 20:00;1;9;9;35.22;49.00
18/10/2021 20:30;1;14;14;31.36;62.00
18/10/2021 21:00;1;6;6;34.17;55.00
18/10/2021 21:30;1;1;1;27.00;27.00
18/10/2021 22:00;1;3;3;34.00;46.00
18/10/2021 22:30;1;3;3;31.67;54.00
18/10/2021 23:00;1;4;4;29.25;45.00
18/10/2021 23:30;1;1;1;36.00;36.00
19/10/2021 00:00;1;3;3;63.67;69.00
19/10/2021 01:00;1;4;4;49.25;63.00
19/10/2021 01:30;1;1;1;36.00;36.00
19/10/2021 02:30;1;1;1;44.00;44.00
19/10/2021 04:00;1;2;2;44.00;49.00
19/10/2021 04:30;1;2;2;48.50;50.00
19/10/2021 05:00;1;3;3;38.00;51.00
19/10/2021 05:30;1;7;7;35.14;48.00
19/10/2021 06:00;1;16;16;33.50;44.00
19/10/2021 06:30;1;41;41;33.12;47.00
19/10/2021 07:00;1;69;69;32.97;48.00
19/10/2021 07:30;1;64;64;30.80;52.00
19/10/2021 08:00;1;66;66;31.00;51.00
19/10/2021 08:30;1;65;65;32.03;52.00
19/10/2021 09:00;1;47;47;31.40;50.00
19/10/2021 09:30;1;57;57;33.09;55.00
19/10/2021 10:00;1;64;64;30.59;57.00
19/10/2021 10:30;1;50;50;31.42;56.00
19/10/2021 11:00;1;69;69;29.51;51.00
19/10/2021 11:30;1;62;62;31.85;48.00
19/10/2021 12:00;1;40;40;30.02;63.00
19/10/2021 12:30;1;61;61;28.92;45.00
19/10/2021 13:00;1;57;57;30.21;47.00
19/10/2021 13:30;1;60;60;32.22;52.00
19/10/2021 14:00;1;49;49;32.84;51.00
19/10/2021 14:30;1;49;49;33.43;49.00
19/10/2021 15:00;1;72;72;30.56;54.00
19/10/2021 15:30;1;78;78;31.09;52.00
19/10/2021 16:00;1;65;65;31.92;54.00
19/10/2021 16:30;1;53;53;30.26;43.00
19/10/2021 17:00;1;58;58;32.91;56.00
19/10/2021 17:30;1;52;52;32.98;55.00
19/10/2021 18:00;1;45;45;32.07;55.00
19/10/2021 18:30;1;36;36;34.42;64.00
19/10/2021 19:00;1;12;12;30.00;46.00
19/10/2021 19:30;1;18;18;30.00;42.00
19/10/2021 20:00;1;20;20;28.30;43.00
19/10/2021 20:30;1;9;9;36.56;51.00
19/10/2021 21:00;1;7;7;31.14;54.00
19/10/2021 21:30;1;7;7;35.43;51.00
19/10/2021 22:00;1;4;4;31.00;45.00
19/10/2021 22:30;1;5;5;27.80;39.00
19/10/2021 23:00;1;1;1;40.00;40.00
19/10/2021 23:30;1;1;1;38.00;38.00
20/10/2021 00:00;1;2;2;41.00;47.00
20/10/2021 02:00;1;1;1;26.00;26.00
20/10/2021 02:30;1;1;1;23.00;23.00
20/10/2021 04:30;1;2;2;43.50;44.00
20/10/2021 05:00;1;3;3;39.00;46.00
20/10/2021 05:30;1;7;7;35.86;64.00
20/10/2021 06:00;1;11;11;36.45;58.00
20/10/2021 06:30;1;42;42;33.33;50.00
20/10/2021 07:00;1;73;73;33.60;50.00
20/10/2021 07:30;1;68;68;30.84;44.00
20/10/2021 08:00;1;57;57;30.89;46.00
20/10/2021 08:30;1;75;75;32.61;57.00
20/10/2021 09:00;1;48;48;32.69;51.00
20/10/2021 09:30;1;59;59;31.93;46.00
20/10/2021 10:00;1;59;59;31.03;45.00
20/10/2021 10:30;1;55;55;31.75;51.00
20/10/2021 11:00;1;51;51;31.29;52.00
20/10/2021 11:30;1;56;56;31.93;52.00
20/10/2021 12:00;1;64;64;31.61;52.00
20/10/2021 12:30;1;60;60;28.98;43.00
20/10/2021 13:00;1;38;38;28.45;46.00
20/10/2021 13:30;1;46;46;33.00;50.00
20/10/2021 14:00;1;43;43;31.37;56.00
20/10/2021 14:30;1;56;56;32.02;53.00
20/10/2021 15:00;1;56;56;32.45;51.00
20/10/2021 15:30;1;64;64;35.30;54.00
20/10/2021 16:00;1;63;63;31.62;59.00
20/10/2021 16:30;1;74;74;33.05;51.00
20/10/2021 17:00;1;40;40;33.27;50.00
20/10/2021 17:30;1;51;51;32.98;65.00
20/10/2021 18:00;1;46;46;32.22;47.00
20/10/2021 18:30;1;33;33;32.58;64.00
20/10/2021 19:00;1;29;29;30.10;50.00
20/10/2021 19:30;1;22;22;31.05;47.00
20/10/2021 20:00;1;13;13;32.62;48.00
20/10/2021 20:30;1;9;9;33.33;45.00
20/10/2021 21:00;1;11;11;35.18;48.00
20/10/2021 21:30;1;9;9;35.33;56.00
20/10/2021 22:00;1;6;6;36.50;51.00
20/10/2021 22:30;1;2;2;28.00;35.00
20/10/2021 23:00;1;3;3;27.00;43.00
20/10/2021 23:30;1;2;2;21.00;26.00
21/10/2021 00:00;1;2;2;36.00;43.00
21/10/2021 01:00;1;2;2;38.00;41.00
21/10/2021 01:30;1;2;2;33.50;36.00
21/10/2021 03:30;1;3;3;23.33;25.00
21/10/2021 04:00;1;1;1;31.00;31.00
21/10/2021 04:30;1;1;1;48.00;48.00
21/10/2021 05:00;1;2;2;40.00;43.00
21/10/2021 05:30;1;4;4;33.25;43.00
21/10/2021 06:00;1;20;20;34.70;49.00
21/10/2021 06:30;1;40;40;33.55;48.00
21/10/2021 07:00;1;75;75;32.20;48.00
21/10/2021 07:30;1;67;67;29.85;45.00
21/10/2021 08:00;1;71;71;31.65;46.00
21/10/2021 08:30;1;67;67;33.70;58.00
21/10/2021 09:00;1;57;57;33.72;65.00
21/10/2021 09:30;1;55;55;32.24;66.00
21/10/2021 10:00;1;56;56;32.41;49.00
21/10/2021 10:30;1;55;55;32.07;50.00
21/10/2021 11:00;1;59;59;32.29;51.00
21/10/2021 11:30;1;68;68;29.97;47.00
21/10/2021 12:00;1;71;71;31.10;49.00
21/10/2021 12:30;1;57;57;32.09;44.00
21/10/2021 13:00;1;50;50;33.70;50.00
21/10/2021 13:30;1;58;58;31.76;45.00
21/10/2021 14:00;1;50;50;30.94;44.00
21/10/2021 14:30;1;61;61;30.79;45.00
21/10/2021 15:00;1;69;69;32.04;61.00
21/10/2021 15:30;1;61;61;32.62;52.00
21/10/2021 16:00;1;72;72;30.22;52.00
21/10/2021 16:30;1;59;59;35.10;53.00
21/10/2021 17:00;1;60;60;31.15;53.00
21/10/2021 17:30;1;57;57;29.93;48.00
21/10/2021 18:00;1;31;31;30.65;46.00
21/10/2021 18:30;1;25;25;33.08;49.00
21/10/2021 19:00;1;18;18;29.83;43.00
21/10/2021 19:30;1;13;13;33.38;56.00
21/10/2021 20:00;1;10;10;32.00;40.00
21/10/2021 20:30;1;10;10;37.20;52.00
21/10/2021 21:00;1;9;9;29.11;38.00
21/10/2021 21:30;1;3;3;25.33;33.00
21/10/2021 22:00;1;8;8;33.25;63.00
21/10/2021 22:30;1;8;8;36.25;54.00
21/10/2021 23:00;1;4;4;34.00;41.00
21/10/2021 23:30;1;4;4;32.50;40.00
22/10/2021 03:00;1;1;1;50.00;50.00
22/10/2021 03:30;1;1;1;31.00;31.00
22/10/2021 04:00;1;1;1;40.00;40.00
22/10/2021 04:30;1;2;2;40.00;42.00
22/10/2021 05:00;1;4;4;39.25;52.00
22/10/2021 05:30;1;3;3;34.33;44.00
22/10/2021 06:00;1;17;17;33.24;43.00
22/10/2021 06:30;1;37;37;34.41;48.00
22/10/2021 07:00;1;78;78;33.63;58.00
22/10/2021 07:30;1;50;50;30.48;46.00
22/10/2021 08:00;1;55;55;32.02;51.00
22/10/2021 08:30;1;67;67;31.69;45.00
22/10/2021 09:00;1;44;44;33.11;46.00
22/10/2021 09:30;1;79;79;30.72;52.00
22/10/2021 10:00;1;63;63;31.94;44.00
22/10/2021 10:30;1;64;64;28.80;41.00
22/10/2021 11:00;1;59;59;30.98;55.00
22/10/2021 11:30;1;50;50;31.20;58.00
22/10/2021 12:00;1;58;58;33.45;83.00
22/10/2021 12:30;1;65;65;31.80;61.00
22/10/2021 13:00;1;67;67;29.66;47.00
22/10/2021 13:30;1;59;59;30.02;45.00
22/10/2021 14:00;1;50;50;31.12;49.00
22/10/2021 14:30;1;56;56;30.79;51.00
22/10/2021 15:00;1;60;60;31.87;47.00
22/10/2021 15:30;1;54;54;30.13;44.00
22/10/2021 16:00;1;50;50;32.48;52.00
22/10/2021 16:30;1;46;46;32.11;43.00
22/10/2021 17:00;1;40;40;31.12;45.00
22/10/2021 17:30;1;48;48;30.83;50.00
22/10/2021 18:00;1;35;35;31.31;43.00
22/10/2021 18:30;1;31;31;30.52;47.00
22/10/2021 19:00;1;24;24;29.75;44.00
22/10/2021 19:30;1;18;18;31.11;43.00
22/10/2021 20:00;1;13;13;38.46;68.00
22/10/2021 20:30;1;15;15;33.40;48.00
22/10/2021 21:00;1;8;8;29.62;37.00
22/10/2021 21:30;1;10;10;35.30;50.00
22/10/2021 22:00;1;8;8;39.88;53.00
22/10/2021 22:30;1;7;7;31.71;60.00
22/10/2021 23:00;1;2;2;32.00;37.00
22/10/2021 23:30;1;3;3;33.33;38.00
23/10/2021 00:00;1;4;4;28.25;42.00
23/10/2021 00:30;1;3;3;38.00;52.00
23/10/2021 01:30;1;2;2;33.00;33.00
23/10/2021 02:00;1;3;3;44.33;61.00
23/10/2021 03:30;1;1;1;23.00;23.00
23/10/2021 04:30;1;2;2;30.50;43.00
23/10/2021 05:00;1;2;2;31.50;33.00
23/10/2021 05:30;1;4;4;33.00;40.00
23/10/2021 06:00;1;8;8;30.12;40.00
23/10/2021 06:30;1;3;3;46.00;59.00
23/10/2021 07:00;1;10;10;35.60;54.00
23/10/2021 07:30;1;29;29;31.14;42.00
23/10/2021 08:00;1;21;21;28.67;44.00
23/10/2021 08:30;1;32;32;33.06;46.00
23/10/2021 09:00;1;30;30;33.00;61.00
23/10/2021 09:30;1;66;66;30.30;48.00
23/10/2021 10:00;1;57;57;32.86;53.00
23/10/2021 10:30;1;40;40;30.10;45.00
23/10/2021 11:00;1;40;40;33.58;60.00
23/10/2021 11:30;1;50;50;31.58;43.00
23/10/2021 12:00;1;47;47;31.28;49.00
23/10/2021 12:30;1;39;39;33.21;57.00
23/10/2021 13:00;1;51;51;33.20;49.00
23/10/2021 13:30;1;45;45;29.60;52.00
23/10/2021 14:00;1;44;44;30.91;47.00
23/10/2021 14:30;1;42;42;30.36;45.00
23/10/2021 15:00;1;39;39;34.26;46.00
23/10/2021 15:30;1;30;30;32.57;50.00
23/10/2021 16:00;1;41;41;30.51;58.00
23/10/2021 16:30;1;28;28;30.11;43.00
23/10/2021 17:00;1;37;37;33.70;47.00
23/10/2021 17:30;1;45;45;34.04;49.00
23/10/2021 18:00;1;32;32;32.34;52.00
23/10/2021 18:30;1;26;26;28.85;44.00
23/10/2021 19:00;1;15;15;32.40;45.00
23/10/2021 19:30;1;15;15;34.47;50.00
23/10/2021 20:00;1;12;12;28.58;44.00
23/10/2021 20:30;1;12;12;33.42;54.00
23/10/2021 21:00;1;9;9;35.78;42.00
23/10/2021 21:30;1;7;7;37.57;45.00
23/10/2021 22:00;1;7;7;42.57;54.00
23/10/2021 22:30;1;4;4;37.00;44.00
23/10/2021 23:00;1;6;6;31.33;62.00
23/10/2021 23:30;1;3;3;32.33;36.00
24/10/2021 00:00;1;6;6;38.83;46.00
24/10/2021 00:30;1;1;1;33.00;33.00
24/10/2021 01:00;1;2;2;49.50;53.00
24/10/2021 02:00;1;6;6;28.17;39.00
24/10/2021 03:00;1;1;1;30.00;30.00
24/10/2021 03:30;1;2;2;32.00;35.00
24/10/2021 04:00;1;1;1;20.00;20.00
24/10/2021 05:00;1;1;1;46.00;46.00
24/10/2021 05:30;1;3;3;32.00;40.00
24/10/2021 06:00;1;5;5;22.80;30.00
24/10/2021 06:30;1;3;3;23.33;29.00
24/10/2021 07:00;1;3;3;29.67;41.00
24/10/2021 07:30;1;3;3;40.33;51.00
24/10/2021 08:00;1;5;5;29.80;41.00
24/10/2021 08:30;1;13;13;39.31;55.00
24/10/2021 09:00;1;11;11;34.36;43.00
24/10/2021 09:30;1;11;11;33.09;39.00
24/10/2021 10:00;1;18;18;32.67;42.00
24/10/2021 10:30;1;18;18;32.28;47.00
24/10/2021 11:00;1;28;28;32.61;51.00
24/10/2021 11:30;1;16;16;32.81;51.00
24/10/2021 12:00;1;21;21;31.62;43.00
24/10/2021 12:30;1;25;25;32.88;45.00
24/10/2021 13:00;1;26;26;32.12;52.00
24/10/2021 13:30;1;21;21;34.67;47.00
24/10/2021 14:00;1;18;18;29.06;50.00
24/10/2021 14:30;1;20;20;35.55;51.00
24/10/2021 15:00;1;21;21;38.76;57.00
24/10/2021 15:30;1;32;32;33.47;50.00
24/10/2021 16:00;1;17;17;37.06;44.00
24/10/2021 16:30;1;18;18;33.33;52.00
24/10/2021 17:00;1;18;18;36.56;59.00
24/10/2021 17:30;1;21;21;33.52;46.00
24/10/2021 18:00;1;18;18;36.11;57.00
24/10/2021 18:30;1;15;15;33.67;47.00
24/10/2021 19:00;1;15;15;32.20;56.00
24/10/2021 19:30;1;18;18;34.00;46.00
24/10/2021 20:00;1;9;9;30.44;42.00
24/10/2021 20:30;1;4;4;41.75;63.00
24/10/2021 21:00;1;9;9;31.78;44.00
24/10/2021 21:30;1;10;10;33.50;58.00
24/10/2021 22:00;1;5;5;37.60;58.00
24/10/2021 22:30;1;3;3;38.33;44.00
24/10/2021 23:00;1;2;2;51.50;56.00
24/10/2021 23:30;1;2;2;32.00;39.00
25/10/2021 00:00;1;1;1;32.00;32.00
25/10/2021 00:30;1;1;1;45.00;45.00
25/10/2021 04:30;1;3;3;34.33;36.00
25/10/2021 05:00;1;4;4;37.50;45.00
25/10/2021 05:30;1;4;4;33.00;43.00
25/10/2021 06:00;1;20;20;37.70;52.00
25/10/2021 06:30;1;44;44;32.14;49.00
25/10/2021 07:00;1;72;72;32.49;50.00
25/10/2021 07:30;1;74;74;31.19;44.00
25/10/2021 08:00;1;72;72;30.43;46.00
25/10/2021 08:30;1;76;76;31.26;49.00
25/10/2021 09:00;1;52;52;32.83;49.00
25/10/2021 09:30;1;64;64;30.61;52.00
25/10/2021 10:00;1;56;56;31.34;44.00
25/10/2021 10:30;1;72;72;30.81;47.00
25/10/2021 11:00;1;57;57;31.00;47.00
25/10/2021 11:30;1;52;52;30.29;44.00
25/10/2021 12:00;1;51;51;32.75;55.00
25/10/2021 12:30;1;51;51;31.80;88.00
25/10/2021 13:00;1;61;61;32.44;47.00
25/10/2021 13:30;1;66;66;30.53;61.00
25/10/2021 14:00;1;51;51;29.69;44.00
25/10/2021 14:30;1;62;62;30.55;43.00
25/10/2021 15:00;1;60;60;31.90;46.00
25/10/2021 15:30;1;76;76;31.92;52.00
25/10/2021 16:00;1;64;64;31.41;53.00
25/10/2021 16:30;1;56;56;30.71;45.00
25/10/2021 17:00;1;66;66;31.98;45.00
25/10/2021 17:30;1;55;55;32.53;50.00
25/10/2021 18:00;1;37;37;33.16;47.00
25/10/2021 18:30;1;21;21;31.57;51.00
25/10/2021 19:00;1;19;19;31.63;44.00
25/10/2021 19:30;1;22;22;33.73;49.00
25/10/2021 20:00;1;9;9;34.56;44.00
25/10/2021 20:30;1;7;7;31.71;48.00
25/10/2021 21:00;1;8;8;33.12;52.00
25/10/2021 21:30;1;5;5;33.80;52.00
25/10/2021 22:00;1;3;3;39.67;54.00
25/10/2021 22:30;1;3;3;32.00;38.00
25/10/2021 23:00;1;1;1;36.00;36.00
26/10/2021 00:30;1;2;2;34.00;47.00
26/10/2021 01:00;1;1;1;31.00;31.00
26/10/2021 01:30;1;1;1;40.00;40.00
26/10/2021 03:00;1;1;1;27.00;27.00
26/10/2021 04:00;1;1;1;35.00;35.00
26/10/2021 04:30;1;4;4;41.75;45.00
26/10/2021 05:00;1;3;3;38.33;48.00
26/10/2021 05:30;1;4;4;33.25;41.00
26/10/2021 06:00;1;19;19;33.05;45.00
26/10/2021 06:30;1;44;44;34.73;49.00
26/10/2021 07:00;1;64;64;34.31;48.00
26/10/2021 07:30;1;75;75;30.55;46.00
26/10/2021 08:00;1;77;77;30.75;43.00
26/10/2021 08:30;1;67;67;32.64;48.00
26/10/2021 09:00;1;48;48;32.79;56.00
26/10/2021 09:30;1;47;47;29.11;45.00
26/10/2021 10:00;1;46;46;32.48;45.00
26/10/2021 10:30;1;61;61;30.21;48.00
26/10/2021 11:00;1;54;54;33.39;50.00
26/10/2021 11:30;1;64;64;32.14;49.00
26/10/2021 12:00;1;50;50;32.16;48.00
26/10/2021 12:30;1;58;58;28.45;47.00
26/10/2021 13:00;1;50;50;32.84;48.00
26/10/2021 13:30;1;54;54;30.96;47.00
26/10/2021 14:00;1;49;49;32.20;43.00
26/10/2021 14:30;1;56;56;32.18;48.00
26/10/2021 15:00;1;63;63;31.52;46.00
26/10/2021 15:30;1;69;69;30.25;48.00
26/10/2021 16:00;1;62;62;30.50;50.00
26/10/2021 16:30;1;79;79;31.90;48.00
26/10/2021 17:00;1;54;54;31.15;48.00
26/10/2021 17:30;1;44;44;30.84;44.00
26/10/2021 18:00;1;42;42;32.50;50.00
26/10/2021 18:30;1;27;27;29.44;55.00
26/10/2021 19:00;1;27;27;31.67;49.00
26/10/2021 19:30;1;18;18;32.56;48.00
26/10/2021 20:00;1;9;9;32.56;43.00
26/10/2021 20:30;1;17;17;31.76;47.00
26/10/2021 21:00;1;12;12;29.42;44.00
26/10/2021 21:30;1;9;9;30.33;41.00
26/10/2021 22:00;1;3;3;32.33;46.00
26/10/2021 22:30;1;2;2;34.50;41.00
26/10/2021 23:00;1;1;1;39.00;39.00
26/10/2021 23:30;1;1;1;30.00;30.00
27/10/2021 01:00;1;1;1;21.00;21.00
27/10/2021 03:00;1;1;1;50.00;50.00
27/10/2021 04:30;1;3;3;34.67;44.00
27/10/2021 05:00;1;1;1;27.00;27.00
27/10/2021 05:30;1;3;3;43.67;50.00
27/10/2021 06:00;1;19;19;32.63;46.00
27/10/2021 06:30;1;45;45;33.24;55.00
27/10/2021 07:00;1;72;72;33.39;49.00
27/10/2021 07:30;1;64;64;31.08;47.00
27/10/2021 08:00;1;82;82;32.95;53.00
27/10/2021 08:30;1;82;82;31.87;46.00
27/10/2021 09:00;1;49;49;30.00;45.00
27/10/2021 09:30;1;53;53;32.87;47.00
27/10/2021 10:00;1;44;44;29.57;44.00
27/10/2021 10:30;1;63;63;29.52;48.00
27/10/2021 11:00;1;74;74;29.89;59.00
27/10/2021 11:30;1;63;63;32.33;53.00
27/10/2021 12:00;1;50;50;31.96;49.00
27/10/2021 12:30;1;57;57;29.93;46.00
27/10/2021 13:00;1;62;62;31.39;53.00
27/10/2021 13:30;1;48;48;30.77;50.00
27/10/2021 14:00;1;44;44;28.64;43.00
27/10/2021 14:30;1;66;66;32.05;47.00
27/10/2021 15:00;1;65;65;29.57;55.00
27/10/2021 15:30;1;58;58;30.47;45.00
27/10/2021 16:00;1;63;63;32.63;45.00
27/10/2021 16:30;1;66;66;32.29;55.00
27/10/2021 17:00;1;58;58;30.33;48.00
27/10/2021 17:30;1;55;55;31.76;52.00
27/10/2021 18:00;1;32;32;33.19;49.00
27/10/2021 18:30;1;26;26;30.96;52.00
27/10/2021 19:00;1;29;29;31.90;42.00
27/10/2021 19:30;1;21;21;33.67;45.00
27/10/2021 20:00;1;10;10;34.30;44.00
27/10/2021 20:30;1;10;10;27.70;32.00
27/10/2021 21:00;1;14;14;32.57;50.00
27/10/2021 21:30;1;3;3;22.67;33.00
27/10/2021 22:00;1;2;2;30.00;33.00
27/10/2021 22:30;1;6;6;38.17;52.00
27/10/2021 23:00;1;3;3;37.00;39.00
27/10/2021 23:30;1;1;1;27.00;27.00
28/10/2021 00:00;1;3;3;38.67;43.00
28/10/2021 01:00;1;2;2;30.00;38.00
28/10/2021 01:30;1;1;1;48.00;48.00
28/10/2021 02:00;1;2;2;24.50;28.00
28/10/2021 03:00;1;1;1;56.00;56.00
28/10/2021 04:00;1;1;1;35.00;35.00
28/10/2021 04:30;1;2;2;45.50;46.00
28/10/2021 05:00;1;2;2;47.50;55.00
28/10/2021 05:30;1;5;5;40.00;59.00
28/10/2021 06:00;1;13;13;34.85;44.00
28/10/2021 06:30;1;57;57;33.88;48.00
28/10/2021 07:00;1;70;70;31.89;51.00
28/10/2021 07:30;1;91;91;28.86;45.00
28/10/2021 08:00;1;72;72;30.44;47.00
28/10/2021 08:30;1;52;52;32.04;50.00
28/10/2021 09:00;1;43;43;33.05;53.00
28/10/2021 09:30;1;53;53;30.68;48.00
28/10/2021 10:00;1;52;52;32.56;49.00
28/10/2021 10:30;1;53;53;30.74;46.00
28/10/2021 11:00;1;68;68;31.94;52.00
28/10/2021 11:30;1;45;45;30.22;41.00
28/10/2021 12:00;1;63;63;31.51;64.00
28/10/2021 12:30;1;64;64;30.69;45.00
28/10/2021 13:00;1;54;54;31.28;47.00
28/10/2021 13:30;1;69;69;31.74;49.00
28/10/2021 14:00;1;49;49;29.33;51.00
28/10/2021 14:30;1;54;54;31.43;48.00
28/10/2021 15:00;1;56;56;32.09;46.00
28/10/2021 15:30;1;58;58;33.16;48.00
28/10/2021 16:00;1;69;69;31.65;53.00
28/10/2021 16:30;1;64;64;30.70;55.00
28/10/2021 17:00;1;59;59;33.17;55.00
28/10/2021 17:30;1;57;57;31.07;45.00
28/10/2021 18:00;1;33;33;34.15;54.00
28/10/2021 18:30;1;26;26;31.04;49.00
28/10/2021 19:00;1;29;29;29.76;42.00
28/10/2021 19:30;1;24;24;30.17;45.00
28/10/2021 20:00;1;17;17;31.06;43.00
28/10/2021 20:30;1;9;9;26.11;33.00
28/10/2021 21:00;1;6;6;29.33;42.00
28/10/2021 21:30;1;5;5;33.80;42.00
28/10/2021 22:00;1;8;8;36.62;52.00
28/10/2021 22:30;1;4;4;40.00;45.00
28/10/2021 23:00;1;5;5;32.60;40.00
28/10/2021 23:30;1;6;6;36.83;54.00
29/10/2021 00:00;1;2;2;52.00;56.00
29/10/2021 01:00;1;1;1;37.00;37.00
29/10/2021 02:00;1;1;1;38.00;38.00
29/10/2021 03:30;1;2;2;33.50;35.00
29/10/2021 04:00;1;3;3;26.33;30.00
29/10/2021 04:30;1;2;2;37.00;39.00
29/10/2021 05:00;1;2;2;44.00;52.00
29/10/2021 05:30;1;4;4;34.75;40.00
29/10/2021 06:00;1;18;18;31.11;57.00
29/10/2021 06:30;1;47;47;35.21;48.00
29/10/2021 07:00;1;63;63;31.41;49.00
29/10/2021 07:30;1;57;57;31.47;48.00
29/10/2021 08:00;1;80;80;30.39;48.00
29/10/2021 08:30;1;55;55;31.55;54.00
29/10/2021 09:00;1;38;38;35.50;50.00
29/10/2021 09:30;1;57;57;30.09;48.00
29/10/2021 10:00;1;56;56;29.20;48.00
29/10/2021 10:30;1;60;60;30.65;47.00
29/10/2021 11:00;1;56;56;31.27;46.00
29/10/2021 11:30;1;64;64;29.03;50.00
29/10/2021 12:00;1;73;73;30.81;48.00
29/10/2021 12:30;1;69;69;32.62;54.00
29/10/2021 13:00;1;61;61;32.79;50.00
29/10/2021 13:30;1;60;60;32.83;54.00
29/10/2021 14:00;1;67;67;30.15;49.00
29/10/2021 14:30;1;66;66;31.83;46.00
29/10/2021 15:00;1;53;53;32.19;53.00
29/10/2021 15:30;1;51;51;32.61;52.00
29/10/2021 16:00;1;50;50;32.04;51.00
29/10/2021 16:30;1;51;51;31.82;53.00
29/10/2021 17:00;1;45;45;31.42;57.00
29/10/2021 17:30;1;38;38;35.47;65.00
29/10/2021 18:00;1;32;32;32.91;55.00
29/10/2021 18:30;1;22;22;36.45;49.00
29/10/2021 19:00;1;18;18;35.00;59.00
29/10/2021 19:30;1;25;25;29.96;49.00
29/10/2021 20:00;1;11;11;29.55;45.00
29/10/2021 20:30;1;9;9;32.33;46.00
29/10/2021 21:00;1;5;5;38.20;44.00
29/10/2021 21:30;1;7;7;26.29;40.00
29/10/2021 22:00;1;8;8;29.00;45.00
29/10/2021 22:30;1;7;7;34.43;49.00
29/10/2021 23:00;1;4;4;32.00;41.00
30/10/2021 00:00;1;6;6;40.33;82.00
30/10/2021 00:30;1;1;1;35.00;35.00
30/10/2021 02:00;1;1;1;40.00;40.00
30/10/2021 02:30;1;4;4;37.00;44.00
30/10/2021 03:00;1;1;1;58.00;58.00
30/10/2021 03:30;1;1;1;19.00;19.00
30/10/2021 04:00;1;1;1;36.00;36.00
30/10/2021 04:30;1;2;2;44.50;46.00
30/10/2021 05:00;1;1;1;39.00;39.00
30/10/2021 05:30;1;3;3;28.33;40.00
30/10/2021 06:00;1;3;3;34.00;40.00
30/10/2021 06:30;1;7;7;32.86;44.00
30/10/2021 07:00;1;15;15;33.20;56.00
30/10/2021 07:30;1;13;13;30.15;42.00
30/10/2021 08:00;1;13;13;32.62;41.00
30/10/2021 08:30;1;34;34;33.56;52.00
30/10/2021 09:00;1;28;28;34.21;52.00
30/10/2021 09:30;1;42;42;31.33;46.00
30/10/2021 10:00;1;38;38;31.37;44.00
30/10/2021 10:30;1;40;40;31.40;48.00
30/10/2021 11:00;1;52;52;32.83;54.00
30/10/2021 11:30;1;56;56;32.75;55.00
30/10/2021 12:00;1;47;47;32.64;49.00
30/10/2021 12:30;1;45;45;30.82;48.00
30/10/2021 13:00;1;48;48;31.94;52.00
30/10/2021 13:30;1;66;66;32.50;62.00
30/10/2021 14:00;1;61;61;32.31;57.00
30/10/2021 14:30;1;40;40;31.95;46.00
30/10/2021 15:00;1;38;38;32.39;48.00
30/10/2021 15:30;1;32;32;32.28;53.00
30/10/2021 16:00;1;39;39;34.28;56.00
30/10/2021 16:30;1;45;45;31.13;54.00
30/10/2021 17:00;1;33;33;34.06;48.00
30/10/2021 17:30;1;43;43;31.14;48.00
30/10/2021 18:00;1;26;26;35.46;55.00
30/10/2021 18:30;1;18;18;30.56;53.00
30/10/2021 19:00;1;19;19;32.21;46.00
30/10/2021 19:30;1;13;13;32.85;45.00
30/10/2021 20:00;1;13;13;33.00;44.00
30/10/2021 20:30;1;17;17;31.18;54.00
30/10/2021 21:00;1;9;9;38.89;48.00
30/10/2021 21:30;1;5;5;36.00;44.00
30/10/2021 22:00;1;8;8;41.88;56.00
30/10/2021 22:30;1;7;7;30.43;40.00
30/10/2021 23:00;1;3;3;35.67;42.00
30/10/2021 23:30;1;6;6;37.33;46.00
31/10/2021 00:00;1;4;4;40.50;71.00
31/10/2021 01:30;1;1;1;32.00;32.00
31/10/2021 02:00;1;3;3;36.67;45.00
31/10/2021 02:30;1;5;5;38.20;53.00
31/10/2021 02:00;1;3;3;30.33;47.00
31/10/2021 03:00;1;1;1;33.00;33.00
31/10/2021 03:30;1;4;4;39.50;58.00
31/10/2021 04:00;1;2;2;41.50;44.00
31/10/2021 05:00;1;3;3;36.00;42.00
31/10/2021 06:00;1;1;1;29.00;29.00
31/10/2021 07:00;1;1;1;31.00;31.00
31/10/2021 07:30;1;5;5;32.60;48.00
31/10/2021 08:00;1;8;8;34.88;48.00
31/10/2021 08:30;1;8;8;39.75;51.00
31/10/2021 09:00;1;8;8;32.38;46.00
31/10/2021 09:30;1;16;16;33.00;39.00
31/10/2021 10:00;1;17;17;35.12;52.00
31/10/2021 10:30;1;14;14;35.00;61.00
31/10/2021 11:00;1;13;13;35.54;52.00
31/10/2021 11:30;1;20;20;33.05;51.00
31/10/2021 12:00;1;16;16;32.31;45.00
31/10/2021 12:30;1;30;30;33.03;52.00
31/10/2021 13:00;1;16;16;31.06;43.00
31/10/2021 13:30;1;19;19;31.53;50.00
31/10/2021 14:00;1;11;11;34.09;41.00
31/10/2021 14:30;1;21;21;36.95;51.00
31/10/2021 15:00;1;12;12;36.33;47.00
31/10/2021 15:30;1;24;24;33.42;47.00
31/10/2021 16:00;1;19;19;34.74;47.00
31/10/2021 16:30;1;18;18;34.00;51.00
31/10/2021 17:00;1;20;20;36.30;55.00
31/10/2021 17:30;1;19;19;30.37;46.00
31/10/2021 18:00;1;15;15;35.80;51.00
31/10/2021 18:30;1;13;13;37.62;50.00
31/10/2021 19:00;1;11;11;32.18;46.00
31/10/2021 19:30;1;9;9;38.11;45.00
31/10/2021 20:00;1;6;6;32.83;44.00
31/10/2021 20:30;1;11;11;41.64;56.00
31/10/2021 21:00;1;4;4;40.00;51.00
31/10/2021 21:30;1;8;8;35.88;52.00
31/10/2021 22:00;1;11;11;29.27;58.00
31/10/2021 22:30;1;5;5;37.00;60.00
01/11/2021 00:00;1;3;3;41.00;54.00
01/11/2021 00:30;1;2;2;41.00;50.00
01/11/2021 01:00;1;1;1;28.00;28.00
01/11/2021 01:30;1;4;4;28.75;33.00
01/11/2021 02:00;1;2;2;46.00;48.00
01/11/2021 02:30;1;5;5;38.20;48.00
01/11/2021 03:00;1;1;1;27.00;27.00
01/11/2021 04:00;1;1;1;37.00;37.00
01/11/2021 04:30;1;1;1;33.00;33.00
01/11/2021 06:30;1;1;1;37.00;37.00
01/11/2021 07:00;1;2;2;35.50;37.00
01/11/2021 08:00;1;3;3;39.33;43.00
01/11/2021 08:30;1;4;4;32.00;43.00
01/11/2021 09:00;1;3;3;35.33;41.00
01/11/2021 09:30;1;7;7;33.71;44.00
01/11/2021 10:00;1;12;12;31.83;41.00
01/11/2021 10:30;1;12;12;36.33;52.00
01/11/2021 11:00;1;21;21;30.90;52.00
01/11/2021 11:30;1;20;20;36.90;52.00
01/11/2021 12:00;1;18;18;31.89;45.00
01/11/2021 12:30;1;16;16;33.31;43.00
01/11/2021 13:00;1;8;8;33.50;43.00
01/11/2021 13:30;1;29;29;34.90;53.00
01/11/2021 14:00;1;23;23;30.70;48.00
01/11/2021 14:30;1;19;19;34.42;55.00
01/11/2021 15:00;1;11;11;36.64;53.00
01/11/2021 15:30;1;20;20;32.95;46.00
01/11/2021 16:00;1;15;15;30.20;45.00
01/11/2021 16:30;1;21;21;32.81;65.00
01/11/2021 17:00;1;20;20;35.80;56.00
01/11/2021 17:30;1;18;18;31.78;50.00
01/11/2021 18:00;1;13;13;33.15;45.00
01/11/2021 18:30;1;18;18;36.72;51.00
01/11/2021 19:00;1;14;14;32.07;43.00
01/11/2021 19:30;1;11;11;29.73;45.00
01/11/2021 20:00;1;12;12;33.67;50.00
01/11/2021 20:30;1;17;17;35.12;46.00
01/11/2021 21:00;1;9;9;29.22;41.00
01/11/2021 21:30;1;5;5;32.00;37.00
01/11/2021 22:00;1;6;6;34.50;50.00
01/11/2021 22:30;1;6;6;32.00;40.00
01/11/2021 23:00;1;8;8;33.38;56.00
01/11/2021 23:30;1;2;2;37.50;48.00
02/11/2021 00:00;1;2;2;45.50;47.00
02/11/2021 00:30;1;1;1;20.00;20.00
02/11/2021 03:30;1;1;1;41.00;41.00
02/11/2021 04:30;1;2;2;21.50;24.00
02/11/2021 05:00;1;1;1;38.00;38.00
02/11/2021 05:30;1;1;1;45.00;45.00
02/11/2021 06:00;1;3;3;30.67;43.00
02/11/2021 06:30;1;9;9;32.11;43.00
02/11/2021 07:00;1;17;17;33.88;49.00
02/11/2021 07:30;1;57;57;35.96;51.00
02/11/2021 08:00;1;77;77;31.78;54.00
02/11/2021 08:30;1;75;75;32.44;49.00
02/11/2021 09:00;1;62;62;33.26;51.00
02/11/2021 09:30;1;69;69;33.90;47.00
02/11/2021 10:00;1;50;50;31.94;50.00
02/11/2021 10:30;1;71;71;30.23;48.00
02/11/2021 11:00;1;121;121;31.89;54.00
02/11/2021 11:30;1;109;109;30.06;53.00
02/11/2021 12:00;1;47;47;33.57;54.00
02/11/2021 12:30;1;33;33;32.33;52.00
02/11/2021 13:00;1;53;53;32.89;54.00
02/11/2021 13:30;1;48;48;32.77;66.00
02/11/2021 14:00;1;50;50;31.40;51.00
02/11/2021 14:30;1;55;55;27.96;49.00
02/11/2021 15:00;1;57;57;30.72;49.00